FW4443 Weather Reports


Display with metric or nautical units.
time (UTC)temp
F
wind
direction
speed
MPH
gust
MPH
rain 1hr
in
rain 24hr
in
rain mn
in
humidity
%
barometer
mb
20260504060246 76 0 5.0 11.0 0.00 0.00 0.00 18 1006.1
20260504050724 77 0 8.0 16.0 0.00 0.00 0.00 16 1006.5
20260504050404 78 0 8.0 14.0 0.00 0.00 0.00 16 1006.5
20260504045732 78 0 7.0 14.0 0.00 0.00 0.00 15 1006.4
20260504045415 78 0 7.0 14.0 0.00 0.00 0.00 15 1006.3
20260504045057 78 0 7.0 13.0 0.00 0.00 0.00 15 1006.4
20260504044741 78 0 6.0 13.0 0.00 0.00 0.00 15 1006.4
20260504044422 78 0 6.0 13.0 0.00 0.00 0.00 16 1006.6
20260504043800 78 0 7.0 14.0 0.00 0.00 0.00 16 1006.5
20260504043136 78 0 8.0 14.0 0.00 0.00 0.00 16 1006.6
20260504042818 78 0 7.0 14.0 0.00 0.00 0.00 16 1006.5
20260504042450 78 0 6.0 14.0 0.00 0.00 0.00 16 1006.4
20260504042128 79 0 6.0 12.0 0.00 0.00 0.00 16 1006.3
20260504041812 79 0 6.0 13.0 0.00 0.00 0.00 16 1006.4
20260504041152 79 0 6.0 13.0 0.00 0.00 0.00 16 1006.3
20260504040827 79 0 7.0 15.0 0.00 0.00 0.00 16 1006.2
20260504040503 79 0 7.0 15.0 0.00 0.00 0.00 16 1006.2
20260504040145 79 0 6.0 15.0 0.00 0.00 0.00 16 1006.1
20260504035824 79 0 6.0 16.0 0.00 0.00 0.00 16 1006.0
20260504035459 79 0 7.0 16.0 0.00 0.00 0.00 16 1006.1
20260504035143 79 0 7.0 16.0 0.00 0.00 0.00 16 1006.1
20260504034817 80 0 7.0 17.0 0.00 0.00 0.00 16 1006.1
20260504034454 80 0 8.0 17.0 0.00 0.00 0.00 16 1006.0
20260504034130 80 0 8.0 17.0 0.00 0.00 0.00 16 1005.9
20260504033811 80 0 8.0 18.0 0.00 0.00 0.00 16 1005.9
20260504033455 80 0 7.0 18.0 0.00 0.00 0.00 17 1005.8
20260504033136 80 235 6.0 18.0 0.00 0.00 0.00 17 1005.7
20260504032513 81 246 8.0 18.0 0.00 0.00 0.00 17 1005.4
20260504032158 81 284 9.0 18.0 0.00 0.00 0.00 17 1005.4
20260504031835 81 258 9.0 16.0 0.00 0.00 0.00 17 1005.4
20260504031518 81 303 8.0 16.0 0.00 0.00 0.00 17 1005.4
20260504031156 81 255 8.0 17.0 0.00 0.00 0.00 16 1005.3
20260504030833 82 253 7.0 17.0 0.00 0.00 0.00 16 1005.2
20260504030512 82 290 8.0 17.0 0.00 0.00 0.00 16 1005.2
20260504030151 82 233 8.0 17.0 0.00 0.00 0.00 16 1005.2
20260504025828 82 244 8.0 17.0 0.00 0.00 0.00 16 1005.1
20260504025503 83 267 7.0 17.0 0.00 0.00 0.00 16 1005.0
20260504025138 83 248 8.0 23.0 0.00 0.00 0.00 16 1005.0
20260504024515 83 200 10.0 23.0 0.00 0.00 0.00 15 1005.0
20260504024159 83 213 10.0 23.0 0.00 0.00 0.00 14 1004.9
20260504023834 83 229 9.0 23.0 0.00 0.00 0.00 13 1004.9
20260504023511 83 190 8.0 23.0 0.00 0.00 0.00 13 1004.9
20260504023154 83 227 8.0 20.0 0.00 0.00 0.00 13 1004.8
20260504022838 83 222 8.0 20.0 0.00 0.00 0.00 13 1004.7
20260504022515 83 247 6.0 20.0 0.00 0.00 0.00 13 1004.7
20260504022157 83 248 4.0 12.0 0.00 0.00 0.00 14 1004.8
20260504021834 83 246 4.0 12.0 0.00 0.00 0.00 13 1004.7
20260504021214 83 198 6.0 14.0 0.00 0.00 0.00 13 1004.8
20260504020246 84 200 5.0 14.0 0.00 0.00 0.00 13 1004.8
20260504015925 84 215 5.0 14.0 0.00 0.00 0.00 13 1004.9
20260504015304 84 194 5.0 20.0 0.00 0.00 0.00 13 1004.8
20260504014947 84 202 6.0 20.0 0.00 0.00 0.00 13 1004.8
20260504014627 84 248 7.0 20.0 0.00 0.00 0.00 13 1004.7
20260504014301 84 238 9.0 25.0 0.00 0.00 0.00 13 1004.9
20260504013942 84 248 10.0 25.0 0.00 0.00 0.00 13 1005.0
20260504013326 85 180 9.0 25.0 0.00 0.00 0.00 13 1005.0
20260504012710 85 215 11.0 25.0 0.00 0.00 0.00 13 1004.8
20260504012352 85 204 11.0 25.0 0.00 0.00 0.00 13 1005.0
20260504012035 85 131 11.0 24.0 0.00 0.00 0.00 13 1005.0
20260504011713 85 188 10.0 24.0 0.00 0.00 0.00 13 1005.0
20260504011353 85 145 10.0 21.0 0.00 0.00 0.00 13 1005.0
20260504010727 85 213 8.0 21.0 0.00 0.00 0.00 12 1005.0
20260504010407 85 157 7.0 19.0 0.00 0.00 0.00 12 1005.0
20260504010043 86 161 7.0 19.0 0.00 0.00 0.00 12 1004.9
20260504005725 86 200 7.0 19.0 0.00 0.00 0.00 12 1005.0
20260504005406 86 219 8.0 19.0 0.00 0.00 0.00 11 1005.0
20260504005044 86 221 8.0 19.0 0.00 0.00 0.00 11 1005.1
20260504004724 86 223 9.0 19.0 0.00 0.00 0.00 11 1005.0
20260504004402 86 183 9.0 19.0 0.00 0.00 0.00 11 1005.0
20260504003443 86 208 9.0 21.0 0.00 0.00 0.00 11 1004.9
20260504003128 86 165 9.0 21.0 0.00 0.00 0.00 11 1004.9
20260504002807 86 178 8.0 21.0 0.00 0.00 0.00 11 1005.0
20260504002144 87 204 8.0 21.0 0.00 0.00 0.00 11 1004.9
20260504001824 87 259 9.0 20.0 0.00 0.00 0.00 11 1005.0
20260504001502 87 215 9.0 20.0 0.00 0.00 0.00 11 1004.8
20260504001141 87 252 10.0 20.0 0.00 0.00 0.00 11 1004.9
20260504000821 88 155 9.0 20.0 0.00 0.00 0.00 11 1004.9
20260504000503 88 184 9.0 20.0 0.00 0.00 0.00 11 1005.0
20260504000144 88 168 8.0 20.0 0.00 0.00 0.00 12 1005.0
20260503235827 88 207 9.0 20.0 0.00 0.00 0.00 11 1005.1
20260503235210 87 192 7.0 22.0 0.00 0.00 0.00 12 1005.0
20260503234845 87 155 7.0 22.0 0.00 0.00 0.00 12 1005.0
20260503234523 87 225 8.0 22.0 0.00 0.00 0.00 12 1005.1
20260503234200 87 189 8.0 22.0 0.00 0.00 0.00 12 1005.0
20260503233843 87 192 8.0 22.0 0.00 0.00 0.00 11 1005.1
20260503233520 87 234 8.0 17.0 0.00 0.00 0.00 11 1005.1
20260503232856 87 229 8.0 17.0 0.00 0.00 0.00 12 1005.1
20260503232236 87 248 9.0 17.0 0.00 0.00 0.00 12 1005.2
20260503231616 88 206 7.0 21.0 0.00 0.00 0.00 11 1005.2
20260503231302 88 183 8.0 21.0 0.00 0.00 0.00 12 1005.1
20260503230942 88 217 10.0 21.0 0.00 0.00 0.00 11 1005.1
20260503230624 88 170 9.0 21.0 0.00 0.00 0.00 11 1005.2
20260503230301 89 188 7.0 21.0 0.00 0.00 0.00 11 1005.2
20260503225939 89 219 6.0 16.0 0.00 0.00 0.00 11 1005.3
20260503225620 89 207 6.0 16.0 0.00 0.00 0.00 12 1005.3
20260503225304 89 128 7.0 22.0 0.00 0.00 0.00 12 1005.3
20260503224942 89 176 9.0 22.0 0.00 0.00 0.00 13 1005.3
20260503224617 88 130 11.0 22.0 0.00 0.00 0.00 13 1005.4
20260503223959 88 121 10.0 22.0 0.00 0.00 0.00 13 1005.6
20260503223638 88 119 9.0 22.0 0.00 0.00 0.00 13 1005.6
20260503223319 88 163 8.0 22.0 0.00 0.00 0.00 13 1005.8
20260503222954 88 165 7.0 18.0 0.00 0.00 0.00 13 1005.9
20260503222631 88 184 7.0 13.0 0.00 0.00 0.00 12 1005.9
20260503222314 89 142 7.0 13.0 0.00 0.00 0.00 13 1006.0
20260503221956 89 173 8.0 19.0 0.00 0.00 0.00 14 1006.1
20260503221635 88 159 10.0 19.0 0.00 0.00 0.00 13 1006.1
20260503221009 89 189 10.0 19.0 0.00 0.00 0.00 13 1006.4
20260503220650 89 155 9.0 19.0 0.00 0.00 0.00 13 1006.5
20260503220325 89 173 10.0 19.0 0.00 0.00 0.00 13 1006.5
20260503220005 88 215 8.0 16.0 0.00 0.00 0.00 13 1006.6
20260503215345 89 178 8.0 20.0 0.00 0.00 0.00 12 1006.7
20260503215019 89 263 9.0 20.0 0.00 0.00 0.00 12 1006.8
20260503214705 90 197 8.0 20.0 0.00 0.00 0.00 12 1006.7
20260503214342 90 206 7.0 20.0 0.00 0.00 0.00 12 1006.8
20260503214027 90 239 7.0 20.0 0.00 0.00 0.00 12 1007.0
20260503213710 90 184 6.0 19.0 0.00 0.00 0.00 12 1006.9
20260503213348 90 205 8.0 19.0 0.00 0.00 0.00 12 1007.0
20260503212725 90 157 5.0 19.0 0.00 0.00 0.00 12 1007.3
20260503212406 90 160 3.0 12.0 0.00 0.00 0.00 12 1007.4
20260503212041 88 170 4.0 12.0 0.00 0.00 0.00 13 1007.5
20260503211726 87 155 4.0 12.0 0.00 0.00 0.00 12 1007.5
20260503211412 87 184 4.0 12.0 0.00 0.00 0.00 12 1007.6
20260503211051 87 208 3.0 12.0 0.00 0.00 0.00 13 1007.4
20260503210726 87 194 1.0 8.0 0.00 0.00 0.00 12 1007.6
20260503210400 87 229 0.0 4.0 0.00 0.00 0.00 12 1007.6
20260503205740 87 194 1.0 11.0 0.00 0.00 0.00 13 1007.6
20260503205418 87 184 2.0 11.0 0.00 0.00 0.00 12 1007.8
20260503205059 87 53 4.0 11.0 0.00 0.00 0.00 11 1007.8
20260503204736 87 78 5.0 11.0 0.00 0.00 0.00 12 1008.0
20260503204412 88 123 4.0 11.0 0.00 0.00 0.00 12 1008.1
20260503204047 88 165 3.0 11.0 0.00 0.00 0.00 11 1008.2
20260503203728 88 84 3.0 8.0 0.00 0.00 0.00 12 1008.2
20260503203104 89 44 3.0 12.0 0.00 0.00 0.00 11 1008.2
20260503202439 89 78 4.0 13.0 0.00 0.00 0.00 11 1008.4
20260503202117 90 157 5.0 13.0 0.00 0.00 0.00 11 1008.6
20260503201753 91 104 4.0 13.0 0.00 0.00 0.00 10 1008.6
20260503201127 91 57 5.0 15.0 0.00 0.00 0.00 14 1008.7
20260503200803 91 0 6.0 15.0 0.00 0.00 0.00 9 1008.7
20260503200442 91 113 6.0 16.0 0.00 0.00 0.00 11 1008.9
20260503200128 90 108 5.0 16.0 0.00 0.00 0.00 11 1008.8
20260503195810 89 78 4.0 16.0 0.00 0.00 0.00 12 1009.1
20260503194250 89 78 2.0 9.0 0.00 0.00 0.00 11 1009.5
20260503193935 87 30 2.0 9.0 0.00 0.00 0.00 11 1009.6
20260503193612 88 234 3.0 11.0 0.00 0.00 0.00 9 1009.6
20260503193247 89 67 3.0 11.0 0.00 0.00 0.00 14 1009.9
20260503192930 88 67 2.0 11.0 0.00 0.00 0.00 11 1009.9
20260503192611 87 198 3.0 11.0 0.00 0.00 0.00 12 1010.0
20260503192252 87 80 4.0 11.0 0.00 0.00 0.00 10 1010.0
20260503191631 87 146 3.0 9.0 0.00 0.00 0.00 12 1010.2
20260503191304 87 237 3.0 9.0 0.00 0.00 0.00 10 1010.2
20260503190941 87 156 2.0 9.0 0.00 0.00 0.00 9 1010.3
20260503190614 88 130 2.0 9.0 0.00 0.00 0.00 9 1010.4
20260503190258 88 144 2.0 7.0 0.00 0.00 0.00 11 1010.5
20260503185632 88 41 2.0 7.0 0.00 0.00 0.00 10 1010.6
20260503185309 87 32 2.0 8.0 0.00 0.00 0.00 14 1010.7
20260503184954 86 131 2.0 8.0 0.00 0.00 0.00 10 1010.9
20260503184633 85 101 2.0 8.0 0.00 0.00 0.00 11 1010.9
20260503184308 85 157 2.0 8.0 0.00 0.00 0.00 10 1011.0
20260503183347 87 163 2.0 7.0 0.00 0.00 0.00 10 1011.1
20260503183022 86 119 1.0 7.0 0.00 0.00 0.00 14 1011.2
20260503182656 85 117 2.0 8.0 0.00 0.00 0.00 9 1011.2
20260503182337 85 185 2.0 8.0 0.00 0.00 0.00 13 1011.3
20260503180811 86 63 3.0 8.0 0.00 0.00 0.00 11 1011.7
20260503180456 85 117 3.0 9.0 0.00 0.00 0.00 11 1011.6
20260503180133 85 30 3.0 9.0 0.00 0.00 0.00 11 1011.6
20260503175815 84 132 3.0 9.0 0.00 0.00 0.00 10 1011.7
20260503175459 84 90 3.0 9.0 0.00 0.00 0.00 14 1011.7
20260503175145 83 81 3.0 9.0 0.00 0.00 0.00 11 1011.8
20260503174820 83 110 3.0 9.0 0.00 0.00 0.00 12 1011.9
20260503174152 84 98 3.0 8.0 0.00 0.00 0.00 12 1012.0
20260503173535 83 106 3.0 8.0 0.00 0.00 0.00 11 1012.1
20260503173220 82 145 3.0 8.0 0.00 0.00 0.00 13 1012.2
20260503172601 82 136 3.0 8.0 0.00 0.00 0.00 11 1012.2
20260503172244 82 92 4.0 8.0 0.00 0.00 0.00 11 1012.3
20260503171926 82 129 3.0 8.0 0.00 0.00 0.00 13 1012.3
20260503171602 82 96 3.0 8.0 0.00 0.00 0.00 13 1012.3
20260503171245 82 92 2.0 8.0 0.00 0.00 0.00 11 1012.3
20260503170930 81 35 2.0 6.0 0.00 0.00 0.00 10 1012.3
20260503170607 81 110 2.0 6.0 0.00 0.00 0.00 12 1012.3
20260503170242 81 36 2.0 8.0 0.00 0.00 0.00 11 1012.3
20260503150958 71 132 0.0 3.0 0.00 0.00 0.00 15 1013.0
20260503131211 56 0 2.0 5.0 0.00 0.00 0.00 25 1012.3
20260503130844 56 0 2.0 5.0 0.00 0.00 0.00 25 1012.2
20260503130520 56 296 2.0 5.0 0.00 0.00 0.00 25 1012.1
20260503110744 59 0 1.0 3.0 0.00 0.00 0.00 20 1012.0
20260503110424 59 0 1.0 3.0 0.00 0.00 0.00 21 1011.9
20260503110105 59 0 1.0 3.0 0.00 0.00 0.00 21 1011.9
20260503100108 59 0 2.0 4.0 0.00 0.00 0.00 21 1011.9
20260503081626 61 0 0.0 1.0 0.00 0.00 0.00 19 1012.6
20260503081311 61 0 0.0 1.0 0.00 0.00 0.00 19 1012.6
20260503080651 61 0 0.0 0.0 0.00 0.00 0.00 19 1012.7
20260503080335 61 0 0.0 0.0 0.00 0.00 0.00 19 1012.7
20260503072722 63 0 1.0 3.0 0.00 0.00 0.00 19 1012.8
20260503072357 63 0 1.0 3.0 0.00 0.00 0.00 20 1012.8
20260503072033 63 0 1.0 2.0 0.00 0.00 0.00 19 1012.8
20260503071716 63 0 1.0 2.0 0.00 0.00 0.00 19 1012.8
20260503071355 63 0 1.0 2.0 0.00 0.00 0.00 19 1012.8
20260503071030 64 0 1.0 2.0 0.00 0.00 0.00 20 1012.8
20260503070708 64 0 1.0 2.0 0.00 0.00 0.00 19 1012.9
20260503070350 64 0 0.0 2.0 0.00 0.00 0.00 18 1012.8